Regional Weather Roundup
Issued by NWS Sterling, VA

Home | Current Version | Previous Version | Text Only | Print | Product List | Glossary Off
Versions: 1 2 3 4 5 6 7 8 9 10 11 12 13 14 15 16 17 18 19 20 21 22 23 24 25 26 27 28

000
ASUS41 KLWX 290411
RWRLWX

REGIONAL WEATHER ROUNDUP
NATIONAL WEATHER SERVICE BALTIMORE MD/WASHINGTON DC
1200 AM EDT MON AUG 29 2016

Note: "FAIR" indicates few or no clouds below 12,000 feet
with no significant weather and/or obstructions to visibility.
 TC=TEMPERATURE CELSIUS

 * =Non NWS site. Station does not report precipitation (e.g. rain,
    snow, etc.), thunder, or fog.

DCZ001-MDZ009-015-VAZ040>042-051-053>054-290500-
WASHINGTON METRO

CITY           SKY/WX    TMP DP  RH WIND       PRES   REMARKS
WASHINGTON NAT PTCLDY    77  66  68 S3        30.20S
DULLES         MOCLDY    70  63  78 CALM      30.20S
ANDREWS AFB    CLEAR     72  65  80 E2        30.18F
FT BELVOIR     CLEAR     69  67  92 N1        30.19S
QUANTICO       CLEAR     74  70  87 CALM      30.19S
COLLEGE PARK*  CLEAR     70  68  94 CALM      30.19S
LEESBURG*      CLEAR     73  68  83 W3        30.22F
MANASSAS*      PTCLDY    70  70 100 CALM      30.20S
GAITHERSBURG*  CLOUDY    70  64  83 CALM      30.25S

$$

MDZ006>007-011-014-290500-
BALTIMORE METRO

CITY           SKY/WX    TMP DP  RH WIND       PRES   REMARKS
BWI AIRPORT    PTCLDY    71  64  78 CALM      30.19F
MD SCIENCE CTR   N/A     79  64  60 MISG      30.20S
MARTIN STATE   PTCLDY    77  70  78 CALM      30.21R
ANNAPOLIS      CLEAR     76  68  76 SE7       30.18F
FORT MEADE*    PTCLDY   N/A N/A N/A CALM      30.22S

$$

MDZ012-015-019>023-290500-
MARYLAND EASTERN SHORE

CITY           SKY/WX    TMP DP  RH WIND       PRES   REMARKS
OCEAN CITY     CLEAR     72  67  84 N3        30.17S
SALISBURY      PTCLDY    67  64  90 CALM      30.17F
BAY BRIDGE AP* CLEAR     75  68  78 E5        30.19S
CAMBRIDGE*     CLEAR     64  63  94 CALM      30.18F
EASTON*        CLEAR     70  68  94 CALM      30.23S

$$

MDZ017>025-290500-
SOUTHERN MARYLAND

CITY           SKY/WX    TMP DP  RH WIND       PRES   REMARKS
PATUXENT RIVER CLEAR     74  67  78 E5        30.18S
ST INIGOES     CLEAR     69  65  86 CALM      30.18R
LEONARDTOWN*   CLEAR     68  63  83 CALM      30.20F

$$

MDZ003>005-290500-
NORTH CENTRAL MARYLAND

CITY           SKY/WX    TMP DP  RH WIND       PRES   REMARKS
FREDERICK*     CLOUDY    70  70 100 CALM      30.23F
HAGERSTOWN APT MOCLDY    77  64  64 W3        30.22F

$$

MDZ501>502-290500-
WESTERN MARYLAND

CITY           SKY/WX    TMP DP  RH WIND       PRES   REMARKS
OAKLAND*       MOCLDY    63  63 100 SE6       30.34F
CUMBERLAND*    MOCLDY    79  64  61 N5        30.27F

$$

VAZ025>031-290500-
SHENANDOAH VALLEY

CITY           SKY/WX    TMP DP  RH WIND       PRES   REMARKS
WINCHESTER*    PTCLDY    70  64  83 CALM      30.22S
FRONT ROYAL*   FAIR      68  64  88 CALM      30.21S
LURAY*         FAIR      70  70 100 CALM      30.23R
NEW MARKET*    FAIR     N/A N/A N/A CALM      30.22R
STAUNTON*      CLOUDY    67  64  89 CALM      30.25F
WAYNESBORO*    FAIR      70  64  80 CALM      30.25F

$$

WVZ021-048>050-054>055-290500-
EASTERN WEST VIRGINIA PANHANDLE

CITY           SKY/WX    TMP DP  RH WIND       PRES   REMARKS
MARTINSBURG    CLOUDY    73  66  78 NW3       30.21S
PETERSBURG*    CLOUDY    78  70  76 NE3       30.24R

$$

VAZ036>039-050-290500-
CENTRAL FOOTHILLS

CITY           SKY/WX    TMP DP  RH WIND       PRES   REMARKS
CHARLOTTESVILL CLEAR     72  66  81 NW5       30.21R
CULPEPER*      CLEAR     69  69  98 CALM      30.21S
ORANGE*          N/A     68  68 100 CALM      30.22S
GORDONSVILLE*  NOT AVBL
WARRENTON*     FAIR      68  63  84 CALM      30.20S

$$

VAZ055>057-290500-
NORTH AND CENTRAL PIEDMONT

CITY           SKY/WX    TMP DP  RH WIND       PRES   REMARKS
FREDERICKSBRG* CLEAR     71  71 100 CALM      30.18S
STAFFORD*      CLEAR     66  65  97 CALM      30.23S

$$

NCZ024-NYZ072-PAZ021-071-VAZ022-071-290500-
OTHER REGIONAL OBSERVATIONS

CITY           SKY/WX    TMP DP  RH WIND       PRES   REMARKS
NEW YORK CITY  CLEAR     75  65  70 CALM      30.20S
PHILADELPHIA   PTCLDY    75  67  76 S7        30.20S
PITTSBURGH     CLOUDY    72  66  81 E5        30.24S
ROANOKE        CLEAR     73  63  70 N3        30.24R
RICHMOND       PTCLDY    71  67  87 NE5       30.18R
RALEIGH        CLOUDY    79  69  71 E7        30.15R

$$

ANZ530>537-290500-
MARINE OBSERVATIONS

STATION/POSITION TIME  TEMP    WIND        PRES
                       AIR SEA DIR/SP/G
                 (UTC) (F)     (DEG/KT/KT) (MB)
THOMAS PT LIGHT  0400   77 83  140/  6/  7 1023.6F
BALT KEY BRIDGE  0348   78     140/  7/  8 1022.3F
COVE POINT       0348   76     130/  7/ 10 1022.7R
LEWISETTA        0342   78 84  100/  9/ 12 1021.5R
SOLOMONS ISLAND  0348   78 84  110/  7/  8   N/A
PINEY POINT      0348           60/  4/  5   N/A

$$





USA.gov is the U.S. government's official web portal to all federal, state and local government web resources and services.